Regional Weather Roundup
Issued by NWS

Home | Current Version | Previous Version | Text Only | Print | Product List | Glossary Off
Versions: 1 2 3 4 5 6 7 8 9 10 11 12 13 14 15 16 17 18 19 20 21 22 23 24 25 26 27

000
ASUS45 KBOI 220210
RWRID

IDAHO REGIONAL WEATHER ROUNDUP
NATIONAL WEATHER SERVICE BOISE ID
800 PM MDT FRI JUL 21 2017

NOTE: "FAIR" INDICATES FEW OR NO CLOUDS BELOW 12000 FEET
WITH NO SIGNIFICANT WEATHER AND/OR OBSTRUCTIONS TO VISIBILITY

IDZ012-014-220300-
SOUTHWEST IDAHO


CITY           SKY/WX    TMP DP  RH WIND       PRES   REMARKS
BOISE          SUNNY     90  35  14 N10       29.96F
CALDWELL       SUNNY     88  48  25 NW9       29.95S
MOUNTAIN HOME  SUNNY     92  37  14 N21       29.96R
$$

IDZ016-017-220300-
SOUTHCENTRAL IDAHO


CITY           SKY/WX    TMP DP  RH WIND       PRES   REMARKS
BURLEY         SUNNY     81  41  24 W7        30.02S
JEROME         SUNNY     87  35  15 SW6       30.03S
TWIN FALLS     SUNNY     87  36  16 NW6       30.03F
$$

IDZ019>023-220300-
SOUTHEAST IDAHO


CITY           SKY/WX    TMP DP  RH WIND       PRES   REMARKS
IDAHO FALLS    CLEAR     84  39  20 S13       30.05S
POCATELLO      CLEAR     86  35  16 SW12      30.04F
REXBURG        CLEAR     83  36  18 S7        30.06F
$$

IDZ006-010-011-018-031-032-220300-
CENTRAL IDAHO MOUNTAINS


CITY           SKY/WX    TMP DP  RH WIND       PRES   REMARKS
MCCALL         SUNNY     79  16   9 W3        30.14S
HAILEY         SUNNY     82  30  15 SW15G22   30.11S
STANLEY          N/A     77  26  15 NW7       30.22S
SALMON         NOT AVBL
CHALLIS        SUNNY     85  26  11 NW7       30.07R
$$

IDZ002-004-006-007-026-220300-
NORTHERN IDAHO


CITY           SKY/WX    TMP DP  RH WIND       PRES   REMARKS
LEWISTON       SUNNY     86  36  16 NW8       30.02S
LOWELL           N/A     77  48  35 CALM      30.00R
COEUR D`ALENE  MOSUNNY   79  40  24 W6        30.08S
MULLAN PASS    SUNNY     60  37  42 VRB7      30.25R
$$




USA.gov is the U.S. government's official web portal to all federal, state and local government web resources and services.